Other Surface Observations
Issued by NWS Charleston, SC

Current Version | Previous Version | Text Only | Print | Product List | Glossary On
Versions: 1 2 3 4 5 6 7 8 9 10 11 12 13 14 15 16 17 18 19 20 21 22 23 24 25 26 27 28 29 30 31 32 33 34 35 36 37 38 39 40 41 42 43 44 45 46 47 48 49 50
000
SXUS52 KCHS 050127
OSOCHS

MARINE OBSERVATIONS
NATIONAL WEATHER SERVICE CHARLESTON SC
900 PM EDT MON MAY 04 2015

...DOWNTOWN CHARLESTON AND HARBOR...

CITY           SKY/WX    TMP DP  RH WIND       PRES   REMARKS
WATERFRONT PRK   N/A     72 N/A N/A E8          N/A
FORT JOHNSON   NOT AVBL

...LAKE MOULTRIE...

CITY           SKY/WX    TMP DP  RH WIND       PRES   REMARKS
PINOPOLIS      NOT AVBL

...LAKE AND SUPPLEMENTAL COASTAL OBSERVATIONS...

STATION/POSITION TIME  TEMP    WIND        PRES    WAVE   SWELL
                       AIR SEA DIR/SP/G            HT/PER HT/PER/DIR
                 (UTC) (F)     (DEG/KT/KT) (MB)    (FT/S) (FT/S/D)
FORT PULASKI     0000   71 71   60/  9/ 11 1026.0R
SAPELO ISLAND    0100   68      50/  3     1025.0S
UPR LAKE MARION  NOT AVBL
WINYAH BAY       0045   71     130/  5     1026.0R
LAKE MURRAY      0100   73     180/ 10/ 12 1024.7R
ACE BASIN NERRS  NOT AVBL


...C-MAN AND BUOY OBSERVATIONS...

STATION/POSITION TIME  TEMP    WIND        PRES    WAVE   SWELL
                       AIR SEA DIR/SP/G            HT/PER HT/PER/DIR
                 (UTC) (F)     (DEG/KT/KT) (MB)    (FT/S) (FT/S/D)
BUOY 41004       0050   73 74  110/ 16/ 17 1025.6R   4/10   2/10
BUOY 41008       0050   71 70  110/  6/  8 1025.2R   3/11   3/ 70/11
FOLLY BEACH CMAN 0100   71      90/  8/  8 1026.4R
CAPERS NS BUOY   0008   72     100/ 10/ 12 1025.9R
FRIPP NS BUOY    0000   71      80/ 10/ 12 1024.5R
5E ST. MARYS GA  0021      72                N/A     3/ 5


STATION/POSITION TIME  TEMP    WIND        PRES    WAVE   SWELL
                       AIR SEA DIR/SP/G            HT/PER HT/PER/DIR
                 (UTC) (F)     (DEG/KT/KT) (MB)    (FT/S) (FT/S/D)
FRYING PAN BUOY  0050   74 72  130/ 10/ 14 1027.7R   3/10   2/ 60/10
BUOY 41025       0050   74 78  200/ 12/ 16 1027.2R   3/10   3/ 70/10
CAPE LOOKOUT NC  0100   69     180/  7/  7 1027.0R
BUOY 41002       0050   69 70  100/ 16/ 17 1027.1R   5/11   3/ 50/11
BUOY 41010       0020   74 78   80/ 16/ 19 1022.9R
ST AUGUSTINE FL  0100   72 72  100/ 10/ 11 1024.6R

$$



USA.gov is the U.S. government's official web portal to all federal, state and local government web resources and services.